User: anonymous   Login
Location: NJAA Observatory
(40.6819°N, 74.8979°W)
Time: 21:12:25
(UTC-04:00)
Language:

Landsat 5 - Orbit

View from above orbital plane
View from above orbital plane
View from above satellite
View from above satellite

Ground track
Ground track

The orbit data is extracted from the following two-line orbital elements,

1 14780U 84021A   17144.36463174 +.00000155 +00000-0 +20701-4 0  9991
2 14780 098.0370 255.8641 0089657 247.3852 111.7863 14.91477829296787
Epoch (UTC): 24 May 2017 08:45:04
Eccentricity: 0.0089657
inclination: 98.0370°
perigee height: 531 km
apogee height: 656 km
right ascension of ascending node: 255.8641°
argument of perigee: 247.3852°
revolutions per day: 14.91477829
mean anomaly at epoch: 111.7863°
orbit number at epoch: 29678

The dashed part of the orbit path shows where the satellite is in the earth's shadow,  

DLR